Location: Pel�-Koumbol�
(14.9505°N, 3.0798°W)
Time: 05:03:04
(UTC+00:00)

ASTRO E2 - Pass Details

Date: 17 February 2020
Orbit: 510 x 516 km, 31.4° (Epoch: 07 April)

Event Time Altitude Azimuth Distance (km) Brightness Sun altitude
Exits shadow 05:07:29 25° 4° (N) 1,060 4.2 -21.9°
Maximum altitude 05:08:13 26° 24° (NNE) 1,014 4.3 -21.7°
Drops below altitude 10° 05:11:36 10° 82° (E) 1,718 6.4 -20.9°
Sets 05:14:05 0° 95° (E) 2,605 7.9 -20.3°
